Location: Burbank
(38.7788°N, 114.0429°W)
Time: 11:23:51
(UTC+00:00)

Vanguard 2 Rocket - All Passes

Search period start: 15 May 2026 00:00
Search period end: 25 May 2026 00:00
Orbit: 553 x 3286 km, 32.9° (Epoch: 13 May)

Date Brightness Start Highest point End Pass type
(mag) Time Alt. Az. Time Alt. Az. Time Alt. Az.
15 May - 01:19:39 10° W 01:35:42 32° SW 01:48:44 10° SSE daylight
15 May - 15:20:33 10° SSE 15:26:32 16° SE 15:34:13 10° E daylight
15 May - 17:27:45 10° SW 17:38:56 48° SSE 17:56:08 10° E daylight
15 May - 19:39:51 10° WSW 19:54:42 71° S 20:14:48 10° E daylight
15 May - 21:54:22 10° W 22:12:22 68° SSW 22:31:26 10° ESE daylight
16 May - 00:11:10 10° W 00:29:04 43° SW 00:44:33 10° SSE daylight
16 May - 02:34:02 10° W 02:42:58 15° SW 02:50:48 10° SSW daylight
16 May - 16:23:58 10° SSW 16:33:09 35° SE 16:47:14 10° E daylight
16 May - 18:34:36 10° WSW 18:47:25 65° SSE 19:06:41 10° E daylight
16 May - 20:48:04 10° W 21:04:28 72° S 21:24:28 10° ESE daylight
16 May - 23:03:36 10° W 23:21:51 54° SSW 23:39:22 10° SE daylight
17 May - 01:22:43 10° W 01:37:02 26° SW 01:49:19 10° S daylight
17 May - 15:21:11 10° S 15:28:03 22° SE 15:37:41 10° E daylight
17 May - 17:29:55 10° SW 17:40:48 55° SSE 17:58:12 10° E daylight
17 May - 19:42:18 10° WSW 19:56:45 72° S 20:16:50 10° E daylight
17 May - 21:56:46 10° W 22:14:13 62° SSW 22:33:18 10° SE daylight
18 May - 00:13:47 10° W 00:30:31 36° SW 00:45:40 10° SSE daylight
18 May - 14:22:06 10° SE 14:23:27 10° SE 14:24:54 10° ESE daylight
18 May - 16:25:53 10° SSW 16:34:54 42° SSE 16:49:30 10° E daylight
18 May - 18:37:03 10° WSW 18:49:29 69° S 19:08:42 10° E daylight
18 May - 20:50:33 10° W 21:06:27 68° S 21:26:24 10° ESE daylight
18 May - 23:06:05 10° W 23:23:27 47° SSW 23:40:47 10° SE daylight
19 May - 01:26:35 10° W 01:38:20 19° SW 01:49:01 10° S daylight
19 May - 15:22:34 10° SSW 15:29:42 28° SE 15:40:30 10° E daylight
19 May - 17:32:17 10° WSW 17:42:49 61° SSE 18:00:13 10° E daylight
19 May - 19:44:51 10° W 19:58:51 71° S 20:18:47 10° ESE daylight
19 May - 21:59:15 10° W 22:16:00 56° SSW 22:34:54 10° SE daylight
20 May - 00:16:46 10° W 00:31:55 29° SW 00:46:15 10° S daylight
20 May - 14:20:44 10° SSE 14:25:04 15° SE 14:30:36 10° E daylight
20 May - 16:28:04 10° SW 16:36:50 48° SSE 16:51:37 10° E daylight
20 May - 18:39:36 10° WSW 18:51:38 70° S 19:10:39 10° E daylight
20 May - 20:53:05 10° W 21:08:25 63° SSW 21:28:10 10° ESE daylight
20 May - 23:08:45 10° W 23:25:01 39° SW 23:41:49 10° SSE daylight
21 May - 01:32:16 10° WSW 01:39:42 13° SW 01:46:49 10° SSW daylight
21 May - 15:24:25 10° SSW 15:31:32 34° SE 15:42:58 10° E daylight
21 May - 17:34:48 10° WSW 17:44:58 65° SSE 18:02:11 10° E daylight
21 May - 19:47:26 10° W 20:00:58 68° S 20:20:39 10° ESE daylight
21 May - 22:01:50 10° W 22:17:45 49° SSW 22:36:14 10° SE daylight
22 May - 00:20:23 10° W 00:33:20 22° SW 00:46:04 10° S daylight
22 May - 14:21:41 10° S 14:26:50 20° SE 14:34:03 10° E daylight
22 May - 16:30:26 10° SW 16:38:55 55° SSE 16:53:40 10° E daylight
22 May - 18:42:13 10° W 18:53:51 70° S 19:12:33 10° ESE daylight
22 May - 20:55:40 10° W 21:10:22 57° SSW 21:29:41 10° SE daylight
22 May - 23:11:46 10° W 23:26:34 32° SW 23:42:21 10° SSE daylight
23 May - 15:26:34 10° SW 15:33:32 41° SSE 15:45:15 10° E daylight
23 May - 17:37:25 10° WSW 17:47:13 67° S 18:04:08 10° E daylight
23 May - 19:50:03 10° W 20:03:04 63° SSW 20:22:20 10° ESE daylight
23 May - 22:04:35 10° W 22:19:30 41° SSW 22:37:10 10° SSE daylight
24 May - 00:25:15 10° WSW 00:34:50 16° SW 00:44:31 10° SSW daylight
24 May - 14:23:19 10° SSW 14:28:44 26° SE 14:36:52 10° E daylight
24 May - 16:32:59 10° WSW 16:41:10 60° SSE 16:55:41 10° E daylight
24 May - 18:44:53 10° W 18:56:05 67° S 19:14:21 10° ESE daylight
24 May - 20:58:21 10° W 21:12:18 49° SSW 21:30:55 10° SE daylight
24 May - 23:15:17 10° W 23:28:11 24° SW 23:42:09 10° S daylight
